IQUEBE275 Weather Reports


time (UTC)temp
F
wind
direction
speed
knots
gust
knots
rain 1hr
in
rain 24hr
in
rain mn
in
humidity
%
barometer
mb
20260508023545 40 327 0.9 0.0 0.00 0.00 0.08 58 1004.2
20260508023104 40 330 1.7 0.0 0.00 0.00 0.08 59 1004.3
20260508022502 40 322 0.9 0.0 0.00 0.00 0.08 59 1004.3
20260508022050 40 314 0.9 0.0 0.00 0.00 0.08 59 1004.4
20260508021006 41 323 0.9 0.0 0.00 0.00 0.08 59 1004.3
20260508020558 41 329 0.9 0.0 0.00 0.00 0.08 60 1004.3
20260508015548 41 317 1.7 0.0 0.00 0.00 0.08 60 1004.3
20260508015109 41 360 1.7 0.0 0.00 0.00 0.08 60 1004.2
20260508014509 41 333 0.9 0.0 0.00 0.00 0.08 60 1004.1
20260508014058 41 313 0.9 0.0 0.00 0.00 0.08 61 1004.2
20260508013040 42 310 0.9 0.0 0.00 0.00 0.08 63 1004.2
20260508012555 42 298 0.9 0.0 0.00 0.00 0.08 64 1004.2
20260508012113 43 271 0.9 0.0 0.00 0.00 0.08 64 1004.2
20260508011538 43 299 1.7 0.0 0.00 0.00 0.08 65 1004.2
20260508011056 43 323 1.7 0.0 0.00 0.00 0.08 66 1004.1
20260508010011 43 302 0.9 0.0 0.00 0.00 0.08 67 1004.1
20260508005557 44 258 0.9 0.0 0.00 0.00 0.08 67 1004.0
20260508004518 44 290 0.9 0.0 0.00 0.00 0.08 67 1004.0
20260508004108 44 332 1.7 0.0 0.00 0.00 0.08 67 1003.9
20260508003506 44 308 0.9 0.0 0.00 0.00 0.08 68 1004.0
20260508003048 44 351 0.9 0.0 0.00 0.00 0.08 68 1003.9
20260508002610 45 298 1.7 0.0 0.00 0.00 0.08 68 1003.9
20260508002038 45 328 1.7 0.0 0.00 0.00 0.08 68 1003.8
20260508001552 45 316 1.7 0.0 0.00 0.00 0.08 68 1003.7
20260508001114 45 311 1.7 0.0 0.00 0.00 0.08 68 1003.7
20260508000541 45 327 2.6 0.0 0.00 0.00 0.08 68 1003.6
20260507235508 45 333 2.6 0.0 0.00 0.00 0.08 68 1003.4
20260507235056 45 330 1.7 0.0 0.00 0.00 0.08 68 1003.5
20260507234043 46 315 2.6 0.0 0.00 0.00 0.08 68 1003.4
20260507233559 46 330 2.6 0.0 0.00 0.00 0.08 68 1003.3
20260507232516 46 315 4.3 0.0 0.00 0.00 0.08 68 1003.1
20260507232105 46 325 3.5 0.0 0.00 0.00 0.08 68 1003.0
20260507231047 46 264 3.5 0.0 0.00 0.00 0.08 68 1002.9
20260507230604 46 315 4.3 0.0 0.00 0.00 0.08 68 1002.8
20260507230003 46 281 4.3 0.0 0.00 0.00 0.08 68 1002.8
20260507225551 46 283 4.3 0.0 0.00 0.00 0.08 68 1002.8
20260507224512 46 342 4.3 0.0 0.00 0.00 0.08 68 1002.7
20260507224059 46 287 4.3 0.0 0.00 0.00 0.08 68 1002.6
20260507223016 46 275 4.3 0.0 0.00 0.00 0.08 67 1002.6
20260507222605 46 288 3.5 0.0 0.00 0.00 0.08 67 1002.6
20260507222005 46 287 2.6 0.0 0.00 0.00 0.08 66 1002.5
20260507221556 46 288 3.5 0.0 0.00 0.00 0.08 66 1002.4
20260507221115 46 326 4.3 0.0 0.00 0.00 0.08 66 1002.4
20260507220544 47 290 4.3 0.0 0.00 0.00 0.08 66 1002.4
20260507220101 47 284 4.3 0.0 0.00 0.00 0.08 66 1002.4
20260507215021 47 303 5.2 0.0 0.00 0.00 0.08 67 1002.3
20260507214609 47 307 2.6 0.0 0.00 0.00 0.08 66 1002.3
20260507214005 47 298 1.7 0.0 0.00 0.00 0.08 66 1002.3
20260507213553 47 284 2.6 0.0 0.00 0.00 0.08 66 1002.3
20260507213114 47 287 2.6 0.0 0.00 0.00 0.08 66 1002.3
20260507212511 47 346 1.7 0.0 0.00 0.00 0.08 66 1002.2
20260507212102 47 311 3.5 0.0 0.00 0.00 0.08 66 1002.2
20260507211011 47 296 4.3 0.0 0.00 0.00 0.08 67 1002.1
20260507210553 47 325 4.3 0.0 0.00 0.00 0.08 67 1002.1
20260507205511 47 298 4.3 0.0 0.00 0.00 0.08 67 1002.0
20260507205055 47 285 5.2 0.0 0.00 0.00 0.08 68 1002.0
20260507204049 48 288 3.5 0.0 0.00 0.00 0.08 68 1001.9
20260507203605 48 296 3.5 0.0 0.00 0.00 0.08 67 1001.8
20260507203001 48 301 2.6 0.0 0.00 0.00 0.08 67 1001.8
20260507202551 47 280 2.6 0.0 0.00 0.00 0.08 66 1001.8
20260507201513 46 260 2.6 0.0 0.00 0.00 0.08 65 1001.8
20260507201103 46 336 2.6 0.0 0.00 0.00 0.08 64 1001.8
20260507200014 45 309 1.7 0.0 0.00 0.00 0.08 62 1001.9
20260507195607 45 338 1.7 0.0 0.00 0.00 0.08 63 1001.9
20260507194519 45 344 3.5 0.0 0.00 0.00 0.08 64 1002.0
20260507194107 45 329 4.3 0.0 0.00 0.00 0.08 64 1002.0
20260507193051 45 311 5.2 0.0 0.00 0.00 0.08 66 1002.1
20260507192610 46 317 4.3 0.0 0.00 0.00 0.08 65 1002.1
20260507192007 47 299 4.3 0.0 0.00 0.00 0.08 65 1001.9
20260507191600 47 325 6.1 0.0 0.00 0.00 0.08 66 1001.9
20260507190517 48 300 6.1 0.0 0.00 0.00 0.08 67 1001.9
20260507190108 49 295 7.0 0.0 0.00 0.00 0.08 66 1001.9
20260507185021 51 291 3.5 0.0 0.00 0.00 0.08 64 1001.7
20260507184612 50 281 2.6 0.0 0.00 0.00 0.08 59 1001.7
20260507184005 49 260 0.9 0.0 0.00 0.00 0.08 59 1001.7
20260507183556 49 261 0.9 0.0 0.00 0.00 0.08 60 1001.8
20260507183110 49 261 2.6 0.0 0.00 0.00 0.08 60 1001.8
20260507182538 49 246 2.6 0.0 0.00 0.00 0.08 58 1001.9
20260507182059 48 234 2.6 0.0 0.00 0.00 0.08 54 1002.0
20260507181618 48 273 1.7 0.0 0.00 0.00 0.08 50 1002.0
20260507181043 47 242 1.7 0.0 0.00 0.00 0.08 47 1002.0
20260507180605 46 311 1.7 0.0 0.00 0.00 0.08 46 1002.1
20260507180006 46 263 0.9 0.0 0.00 0.00 0.08 43 1002.2
20260507175553 46 245 1.7 0.0 0.00 0.00 0.08 42 1002.2
20260507175115 45 240 2.6 0.0 0.00 0.00 0.08 43 1002.4
20260507174505 45 244 3.5 0.0 0.00 0.00 0.08 42 1002.4
20260507174055 44 229 3.5 0.0 0.00 0.00 0.08 42 1002.4
20260507173043 44 284 2.6 0.0 0.00 0.00 0.08 39 1002.4
20260507172558 44 291 2.6 0.0 0.00 0.00 0.08 39 1002.4
20260507171516 43 274 2.6 0.0 0.00 0.00 0.08 39 1002.5
20260507171109 43 288 3.5 0.0 0.00 0.00 0.08 39 1002.5
20260507170505 43 279 2.6 0.0 0.00 0.00 0.08 39 1002.6
20260507165613 43 254 2.6 0.0 0.00 0.00 0.08 40 1002.6
20260507165039 43 275 2.6 0.0 0.00 0.00 0.08 41 1002.7
20260507164607 43 262 2.6 0.0 0.00 0.00 0.08 41 1002.7
20260507163549 44 306 1.7 0.0 0.00 0.00 0.06 42 1002.7
20260507163104 44 241 1.7 0.0 0.00 0.00 0.06 43 1002.7
20260507162505 44 232 0.9 0.0 0.00 0.00 0.05 45 1002.6
20260507162053 44 232 0.9 0.0 0.00 0.00 0.04 45 1002.7
20260507161608 44 232 0.9 0.0 0.00 0.00 0.03 47 1002.6
20260507161004 45 232 0.0 0.0 0.00 0.00 0.02 47 1002.7
20260507160555 45 234 0.0 0.0 0.00 0.00 0.02 47 1002.6
20260507160109 45 234 0.9 0.0 0.00 0.00 0.02 47 1002.6
20260507155506 45 250 0.9 0.0 0.00 0.00 0.01 46 1002.7
20260507155059 45 250 0.9 0.0 0.00 0.00 0.01 47 1002.8
20260507154044 45 250 1.7 0.0 0.00 0.00 0.01 49 1002.9
20260507153602 45 237 0.9 0.0 0.00 0.00 0.01 50 1003.0
20260507153002 45 315 1.7 0.0 0.00 0.00 0.00 51 1003.0
20260507152553 45 323 0.9 0.0 0.00 0.00 0.00 52 1003.0
20260507152112 45 319 0.0 0.0 0.00 0.00 0.00 51 1003.0
20260507151511 45 319 0.0 0.0 0.00 0.00 0.00 50 1003.2
20260507151100 45 248 0.9 0.0 0.00 0.00 0.00 49 1003.2
20260507150620 45 248 1.7 0.0 0.00 0.00 0.00 48 1003.3
20260507150021 45 284 1.7 0.0 0.00 0.00 0.00 46 1003.4
20260507145601 45 275 1.7 0.0 0.00 0.00 0.00 46 1003.4
20260507145112 45 319 2.6 0.0 0.00 0.00 0.00 45 1003.4
20260507144008 44 252 2.6 0.0 0.00 0.00 0.00 44 1003.5
20260507143520 44 238 2.6 0.0 0.00 0.00 0.00 44 1003.5
20260507143114 44 230 3.5 0.0 0.00 0.00 0.00 44 1003.5
20260507142004 43 257 4.3 0.0 0.00 0.00 0.00 46 1003.7
20260507141510 44 223 3.5 0.0 0.00 0.00 0.00 46 1003.7
20260507141017 44 215 2.6 0.0 0.00 0.00 0.00 45 1003.8
20260507140601 44 225 1.7 0.0 0.00 0.00 0.00 44 1003.6
20260507135002 43 234 0.9 0.0 0.00 0.00 0.00 43 1003.5
20260507134546 43 237 1.7 0.0 0.00 0.00 0.00 42 1003.5
20260507134057 43 232 2.6 0.0 0.00 0.00 0.00 43 1003.6
20260507133606 43 232 3.5 0.0 0.00 0.00 0.00 43 1003.6
20260507132008 43 234 2.6 0.0 0.00 0.00 0.00 41 1003.6
20260507131553 43 215 2.6 0.0 0.00 0.00 0.00 40 1003.5
20260507131056 43 235 2.6 0.0 0.00 0.00 0.00 39 1003.5
20260507130604 43 255 1.7 0.0 0.00 0.00 0.00 38 1003.5
20260507130112 42 252 1.7 0.0 0.00 0.00 0.00 38 1003.6
20260507125008 42 236 2.6 0.0 0.00 0.00 0.00 38 1003.8
20260507124529 42 229 1.7 0.0 0.00 0.00 0.00 37 1003.7
20260507124100 42 233 0.9 0.0 0.00 0.00 0.00 37 1003.9
20260507033046 40 325 0.9 0.0 0.00 0.00 0.32 37 1005.5
20260507032605 40 322 0.0 0.0 0.00 0.00 0.32 37 1005.6
20260507032005 40 322 0.9 0.0 0.00 0.00 0.32 37 1005.5
20260507031555 40 317 0.9 0.0 0.00 0.00 0.32 37 1005.4
20260507030546 40 327 0.0 0.0 0.00 0.00 0.32 38 1005.6
20260507030106 40 327 0.0 0.0 0.00 0.00 0.32 38 1005.6
20260507025504 40 327 0.0 0.0 0.00 0.00 0.32 38 1005.6
20260507025051 40 328 0.9 0.0 0.00 0.00 0.32 38 1005.6
20260507024609 40 328 0.9 0.0 0.00 0.00 0.32 38 1005.6